sat.trackr.live / text

‹ back to catalog

STARLINK-36471

NORAD 67324 · 2026-002V

PAYLOAD ACTIVE UNKNOWN

§ Identity

Operator
Country
US
Launch date
2026-01-04
Launch site
AFETR
Launch vehicle
Mass (kg)
RCS (m²)

Purposes: comms

External: N2YO · Heavens-Above · Gunter

§ Orbital elements

Epoch: 2026-09-19T10:44:24.721440Z

Period
94.27 min
Inclination
43.0027°
Eccentricity
0.0001560
Mean motion
15.27583571 rev/d
Perigee alt
482.0 km
Apogee alt
484.1 km
Semi-major
6,861.2 km
B*
3.4164e-4
RAAN
310.8497°
Arg perigee
285.9883°
Mean anomaly
74.0797°
Rev number
4,071

§ Raw data

STARLINK-364711 67324U 26002V   26262.44750835  .00009152  00000+0  34164-3 0  99932 67324  43.0027 310.8497 0001560 285.9883  74.0797 15.27583571 40717

JSON: /api/v1/satellites/67324 · /tle

For live sub-satellite position, see the globe view (requires WebGL).

§ Visibility from observer

Set your observer location to see the next 7 days of passes ≥ 10°. The values pass through the URL so the page stays shareable.

No JS? Fill the form by hand. The geolocation button needs JavaScript.